Year,Month,Day,Hour,Minute,Value (Times are PST for temperature in C)
2018,08,06,00,00,17.30
2018,08,06,00,01,17.30
2018,08,06,00,02,17.30
2018,08,06,00,03,17.30
2018,08,06,00,04,17.30
2018,08,06,00,05,17.30
2018,08,06,00,06,17.30
2018,08,06,00,07,17.20
2018,08,06,00,08,17.20
2018,08,06,00,09,17.20
2018,08,06,00,10,17.20
2018,08,06,00,11,17.20
2018,08,06,00,12,17.20
2018,08,06,00,13,17.10
2018,08,06,00,14,17.10
2018,08,06,00,15,17.10
2018,08,06,00,16,17.10
2018,08,06,00,17,17.10
2018,08,06,00,18,17.10
2018,08,06,00,19,17.00
2018,08,06,00,20,17.00
2018,08,06,00,21,17.00
2018,08,06,00,22,17.00
2018,08,06,00,23,17.00
2018,08,06,00,24,17.00
2018,08,06,00,25,16.90
2018,08,06,00,26,16.90
2018,08,06,00,27,16.90
2018,08,06,00,28,16.90
2018,08,06,00,29,16.90
2018,08,06,00,30,16.90
2018,08,06,00,31,16.90
2018,08,06,00,32,16.90
2018,08,06,00,33,16.80
2018,08,06,00,34,16.80
2018,08,06,00,35,16.80
2018,08,06,00,36,16.80
2018,08,06,00,37,16.80
2018,08,06,00,38,16.80
2018,08,06,00,39,16.70
2018,08,06,00,40,16.70
2018,08,06,00,41,16.70
2018,08,06,00,42,16.70
2018,08,06,00,43,16.70
2018,08,06,00,44,16.70
2018,08,06,00,45,16.70
2018,08,06,00,46,16.70
2018,08,06,00,47,16.70
2018,08,06,00,48,16.70
2018,08,06,00,49,16.60
2018,08,06,00,50,16.60
2018,08,06,00,51,16.60
2018,08,06,00,52,16.60
2018,08,06,00,53,16.60
2018,08,06,00,54,16.50
2018,08,06,00,55,16.50
2018,08,06,00,56,16.50
2018,08,06,00,57,16.40
2018,08,06,00,58,16.40
2018,08,06,00,59,16.40
2018,08,06,01,00,16.40
2018,08,06,01,01,16.40
2018,08,06,01,02,16.40
2018,08,06,01,03,16.40
2018,08,06,01,04,16.30
2018,08,06,01,05,16.30
2018,08,06,01,06,16.30
2018,08,06,01,07,16.30
2018,08,06,01,08,16.30
2018,08,06,01,09,16.30
2018,08,06,01,10,16.30
2018,08,06,01,11,16.30
2018,08,06,01,12,16.30
2018,08,06,01,13,16.30
2018,08,06,01,14,16.30
2018,08,06,01,15,16.30
2018,08,06,01,16,16.30
2018,08,06,01,17,16.30
2018,08,06,01,18,16.30
2018,08,06,01,19,16.20
2018,08,06,01,20,16.20
2018,08,06,01,21,16.20
2018,08,06,01,22,16.20
2018,08,06,01,23,16.20
2018,08,06,01,24,16.20
2018,08,06,01,25,16.20
2018,08,06,01,26,16.10
2018,08,06,01,27,16.10
2018,08,06,01,28,16.10
2018,08,06,01,29,16.10
2018,08,06,01,30,16.10
2018,08,06,01,31,16.10
2018,08,06,01,32,16.10
2018,08,06,01,33,16.10
2018,08,06,01,34,16.00
2018,08,06,01,35,16.00
2018,08,06,01,36,16.00
2018,08,06,01,37,16.00
2018,08,06,01,38,15.90
2018,08,06,01,39,15.90
2018,08,06,01,40,15.90
2018,08,06,01,41,15.90
2018,08,06,01,42,15.90
2018,08,06,01,43,15.90
2018,08,06,01,44,15.90
2018,08,06,01,45,15.90
2018,08,06,01,46,15.80
2018,08,06,01,47,15.80
2018,08,06,01,48,15.80
2018,08,06,01,49,15.80
2018,08,06,01,50,15.80
2018,08,06,01,51,15.80
2018,08,06,01,52,15.80
2018,08,06,01,53,15.80
2018,08,06,01,54,15.80
2018,08,06,01,55,15.70
2018,08,06,01,56,15.70
2018,08,06,01,57,15.70
2018,08,06,01,58,15.70
2018,08,06,01,59,15.70
2018,08,06,02,00,15.70
2018,08,06,02,01,15.70
2018,08,06,02,02,15.70
2018,08,06,02,03,15.70
2018,08,06,02,04,15.60
2018,08,06,02,05,15.60
2018,08,06,02,06,15.60
2018,08,06,02,07,15.60
2018,08,06,02,08,15.60
2018,08,06,02,09,15.60
2018,08,06,02,10,15.60
2018,08,06,02,11,15.50
2018,08,06,02,12,15.50
2018,08,06,02,13,15.50
2018,08,06,02,14,15.50
2018,08,06,02,15,15.40
2018,08,06,02,16,15.40
2018,08,06,02,17,15.40
2018,08,06,02,18,15.40
2018,08,06,02,19,15.40
2018,08,06,02,20,15.40
2018,08,06,02,21,15.30
2018,08,06,02,22,15.30
2018,08,06,02,23,15.30
2018,08,06,02,24,15.30
2018,08,06,02,25,15.30
2018,08,06,02,26,15.30
2018,08,06,02,27,15.30
2018,08,06,02,28,15.30
2018,08,06,02,29,15.30
2018,08,06,02,30,15.30
2018,08,06,02,31,15.30
2018,08,06,02,32,15.20
2018,08,06,02,33,15.20
2018,08,06,02,34,15.20
2018,08,06,02,35,15.20
2018,08,06,02,36,15.20
2018,08,06,02,37,15.20
2018,08,06,02,38,15.20
2018,08,06,02,39,15.20
2018,08,06,02,40,15.20
2018,08,06,02,41,15.20
2018,08,06,02,42,15.20
2018,08,06,02,43,15.10
2018,08,06,02,44,15.10
2018,08,06,02,45,15.10
2018,08,06,02,46,15.10
2018,08,06,02,47,15.10
2018,08,06,02,48,15.10
2018,08,06,02,49,15.10
2018,08,06,02,50,15.10
2018,08,06,02,51,15.10
2018,08,06,02,52,15.10
2018,08,06,02,53,15.10
2018,08,06,02,54,15.10
2018,08,06,02,55,15.10
2018,08,06,02,56,15.00
2018,08,06,02,57,15.00
2018,08,06,02,58,15.00
2018,08,06,02,59,15.00
2018,08,06,03,00,15.00
2018,08,06,03,01,14.90
2018,08,06,03,02,14.90
2018,08,06,03,03,14.90
2018,08,06,03,04,14.90
2018,08,06,03,05,14.90
2018,08,06,03,06,14.90
2018,08,06,03,07,14.90
2018,08,06,03,08,14.90
2018,08,06,03,09,14.90
2018,08,06,03,10,14.90
2018,08,06,03,11,14.80
2018,08,06,03,12,14.80
2018,08,06,03,13,14.80
2018,08,06,03,14,14.80
2018,08,06,03,15,14.80
2018,08,06,03,16,14.80
2018,08,06,03,17,14.80
2018,08,06,03,18,14.80
2018,08,06,03,19,14.80
2018,08,06,03,20,14.80
2018,08,06,03,21,14.80
2018,08,06,03,22,14.80
2018,08,06,03,23,14.80
2018,08,06,03,24,14.70
2018,08,06,03,25,14.70
2018,08,06,03,26,14.70
2018,08,06,03,27,14.70
2018,08,06,03,28,14.70
2018,08,06,03,29,14.70
2018,08,06,03,30,14.70
2018,08,06,03,31,14.70
2018,08,06,03,32,14.70
2018,08,06,03,33,14.70
2018,08,06,03,34,14.70
2018,08,06,03,35,14.70
2018,08,06,03,36,14.70
2018,08,06,03,37,14.60
2018,08,06,03,38,14.60
2018,08,06,03,39,14.60
2018,08,06,03,40,14.60
2018,08,06,03,41,14.60
2018,08,06,03,42,14.60
2018,08,06,03,43,14.60
2018,08,06,03,44,14.60
2018,08,06,03,45,14.60
2018,08,06,03,46,14.60
2018,08,06,03,47,14.60
2018,08,06,03,48,14.50
2018,08,06,03,49,14.50
2018,08,06,03,50,14.50
2018,08,06,03,51,14.50
2018,08,06,03,52,14.50
2018,08,06,03,53,14.50
2018,08,06,03,54,14.50
2018,08,06,03,55,14.50
2018,08,06,03,56,14.40
2018,08,06,03,57,14.40
2018,08,06,03,58,14.40
2018,08,06,03,59,14.40
2018,08,06,04,00,14.40
2018,08,06,04,01,14.40
2018,08,06,04,02,14.40
2018,08,06,04,03,14.40
2018,08,06,04,04,14.40
2018,08,06,04,05,14.40
2018,08,06,04,06,14.40
2018,08,06,04,07,14.40
2018,08,06,04,08,14.40
2018,08,06,04,09,14.40
2018,08,06,04,10,14.40
2018,08,06,04,11,14.30
2018,08,06,04,12,14.30
2018,08,06,04,13,14.30
2018,08,06,04,14,14.30
2018,08,06,04,15,14.30
2018,08,06,04,16,14.30
2018,08,06,04,17,14.30
2018,08,06,04,18,14.30
2018,08,06,04,19,14.30
2018,08,06,04,20,14.30
2018,08,06,04,21,14.30
2018,08,06,04,22,14.30
2018,08,06,04,23,14.30
2018,08,06,04,24,14.30
2018,08,06,04,25,14.30
2018,08,06,04,26,14.30
2018,08,06,04,27,14.30
2018,08,06,04,28,14.30
2018,08,06,04,29,14.20
2018,08,06,04,30,14.20
2018,08,06,04,31,14.20
2018,08,06,04,32,14.20
2018,08,06,04,33,14.20
2018,08,06,04,34,14.20
2018,08,06,04,35,14.20
2018,08,06,04,36,14.20
2018,08,06,04,37,14.20
2018,08,06,04,38,14.20
2018,08,06,04,39,14.10
2018,08,06,04,40,14.10
2018,08,06,04,41,14.10
2018,08,06,04,42,14.10
2018,08,06,04,43,14.10
2018,08,06,04,44,14.10
2018,08,06,04,45,14.10
2018,08,06,04,46,14.10
2018,08,06,04,47,14.00
2018,08,06,04,48,14.00
2018,08,06,04,49,14.00
2018,08,06,04,50,14.00
2018,08,06,04,51,14.00
2018,08,06,04,52,14.00
2018,08,06,04,53,14.00
2018,08,06,04,54,14.00
2018,08,06,04,55,14.00
2018,08,06,04,56,13.90
2018,08,06,04,57,14.00
2018,08,06,04,58,13.90
2018,08,06,04,59,13.90
2018,08,06,05,00,13.90
2018,08,06,05,01,13.90
2018,08,06,05,02,13.90
2018,08,06,05,03,13.90
2018,08,06,05,04,13.90
2018,08,06,05,05,13.90
2018,08,06,05,06,13.90
2018,08,06,05,07,13.90
2018,08,06,05,08,13.90
2018,08,06,05,09,13.80
2018,08,06,05,10,13.80
2018,08,06,05,11,13.80
2018,08,06,05,12,13.80
2018,08,06,05,13,13.80
2018,08,06,05,14,13.80
2018,08,06,05,15,13.80
2018,08,06,05,16,13.80
2018,08,06,05,17,13.80
2018,08,06,05,18,13.80
2018,08,06,05,19,13.80
2018,08,06,05,20,13.80
2018,08,06,05,21,13.80
2018,08,06,05,22,13.80
2018,08,06,05,23,13.80
2018,08,06,05,24,13.80
2018,08,06,05,25,13.70
2018,08,06,05,26,13.70
2018,08,06,05,27,13.70
2018,08,06,05,28,13.70
2018,08,06,05,29,13.70
2018,08,06,05,30,13.70
2018,08,06,05,31,13.70
2018,08,06,05,32,13.70
2018,08,06,05,33,13.70
2018,08,06,05,34,13.70
2018,08,06,05,35,13.70
2018,08,06,05,36,13.60
2018,08,06,05,37,13.60
2018,08,06,05,38,13.60
2018,08,06,05,39,13.60
2018,08,06,05,40,13.60
2018,08,06,05,41,13.60
2018,08,06,05,42,13.60
2018,08,06,05,43,13.60
2018,08,06,05,44,13.60
2018,08,06,05,45,13.60
2018,08,06,05,46,13.60
2018,08,06,05,47,13.60
2018,08,06,05,48,13.60
2018,08,06,05,49,13.60
2018,08,06,05,50,13.60
2018,08,06,05,51,13.60
2018,08,06,05,52,13.60
2018,08,06,05,53,13.60
2018,08,06,05,54,13.60
2018,08,06,05,55,13.60
2018,08,06,05,56,13.60
2018,08,06,05,57,13.60
2018,08,06,05,58,13.60
2018,08,06,05,59,13.50
2018,08,06,06,00,13.50
2018,08,06,06,01,13.50
2018,08,06,06,02,13.50
2018,08,06,06,03,13.50
2018,08,06,06,04,13.50
2018,08,06,06,05,13.50
2018,08,06,06,06,13.50
2018,08,06,06,07,13.50
2018,08,06,06,08,13.50
2018,08,06,06,09,13.50
2018,08,06,06,10,13.50
2018,08,06,06,11,13.50
2018,08,06,06,12,13.50
2018,08,06,06,13,13.40
2018,08,06,06,14,13.40
2018,08,06,06,15,13.40
2018,08,06,06,16,13.40
2018,08,06,06,17,13.40
2018,08,06,06,18,13.40
2018,08,06,06,19,13.40
2018,08,06,06,20,13.40
2018,08,06,06,21,13.50
2018,08,06,06,22,13.50
2018,08,06,06,23,13.50
2018,08,06,06,24,13.50
2018,08,06,06,25,13.50
2018,08,06,06,26,13.50
2018,08,06,06,27,13.50
2018,08,06,06,28,13.50
2018,08,06,06,29,13.50
2018,08,06,06,30,13.50
2018,08,06,06,31,13.50
2018,08,06,06,32,13.50
2018,08,06,06,33,13.50
2018,08,06,06,34,13.50
2018,08,06,06,35,13.50
2018,08,06,06,36,13.50
2018,08,06,06,37,13.50
2018,08,06,06,38,13.50
2018,08,06,06,39,13.50
2018,08,06,06,40,13.50
2018,08,06,06,41,13.50
2018,08,06,06,42,13.50
2018,08,06,06,43,13.50
2018,08,06,06,44,13.60
2018,08,06,06,45,13.60
2018,08,06,06,46,13.60
2018,08,06,06,47,13.60
2018,08,06,06,48,13.60
2018,08,06,06,49,13.60
2018,08,06,06,50,13.60
2018,08,06,06,51,13.60
2018,08,06,06,52,13.70
2018,08,06,06,53,13.70
2018,08,06,06,54,13.70
2018,08,06,06,55,13.70
2018,08,06,06,56,13.70
2018,08,06,06,57,13.70
2018,08,06,06,58,13.70
2018,08,06,06,59,13.70
2018,08,06,07,00,13.70
2018,08,06,07,01,13.70
2018,08,06,07,02,13.70
2018,08,06,07,03,13.70
2018,08,06,07,04,13.70
2018,08,06,07,05,13.80
2018,08,06,07,06,13.80
2018,08,06,07,07,13.80
2018,08,06,07,08,13.80
2018,08,06,07,09,13.80
2018,08,06,07,10,13.80
2018,08,06,07,11,13.80
2018,08,06,07,12,13.80
2018,08,06,07,13,13.80
2018,08,06,07,14,13.90
2018,08,06,07,15,13.90
2018,08,06,07,16,13.90
2018,08,06,07,17,13.90
2018,08,06,07,18,13.90
2018,08,06,07,19,14.00
2018,08,06,07,20,14.00
2018,08,06,07,21,14.00
2018,08,06,07,22,14.10
2018,08,06,07,23,14.10
2018,08,06,07,24,14.10
2018,08,06,07,25,14.10
2018,08,06,07,26,14.10
2018,08,06,07,27,14.20
2018,08,06,07,28,14.20
2018,08,06,07,29,14.20
2018,08,06,07,30,14.20
2018,08,06,07,31,14.30
2018,08,06,07,32,14.30
2018,08,06,07,33,14.30
2018,08,06,07,34,14.30
2018,08,06,07,35,14.40
2018,08,06,07,36,14.40
2018,08,06,07,37,14.40
2018,08,06,07,38,14.50
2018,08,06,07,39,14.50
2018,08,06,07,40,14.60
2018,08,06,07,41,14.60
2018,08,06,07,42,14.70
2018,08,06,07,43,14.70
2018,08,06,07,44,14.70
2018,08,06,07,45,14.80
2018,08,06,07,46,14.80
2018,08,06,07,47,14.90
2018,08,06,07,48,14.90
2018,08,06,07,49,15.00
2018,08,06,07,50,15.00
2018,08,06,07,51,15.10
2018,08,06,07,52,15.10
2018,08,06,07,53,15.20
2018,08,06,07,54,15.20
2018,08,06,07,55,15.30
2018,08,06,07,56,15.40
2018,08,06,07,57,15.50
2018,08,06,07,58,15.60
2018,08,06,07,59,15.70
2018,08,06,08,00,15.80
2018,08,06,08,01,16.00
2018,08,06,08,02,16.10
2018,08,06,08,03,16.20
2018,08,06,08,04,16.30
2018,08,06,08,05,16.50
2018,08,06,08,06,16.60
2018,08,06,08,07,16.80
2018,08,06,08,08,16.90
2018,08,06,08,09,17.10
2018,08,06,08,10,17.30
2018,08,06,08,11,17.40
2018,08,06,08,12,17.60
2018,08,06,08,13,17.80
2018,08,06,08,14,18.00
2018,08,06,08,15,18.20
2018,08,06,08,16,18.40
2018,08,06,08,17,18.50
2018,08,06,08,18,18.70
2018,08,06,08,19,18.90
2018,08,06,08,20,19.00
2018,08,06,08,21,19.20
2018,08,06,08,22,19.30
2018,08,06,08,23,19.50
2018,08,06,08,24,19.60
2018,08,06,08,25,19.70
2018,08,06,08,26,19.80
2018,08,06,08,27,20.00
2018,08,06,08,28,20.10
2018,08,06,08,29,20.20
2018,08,06,08,30,20.40
2018,08,06,08,31,20.50
2018,08,06,08,32,20.60
2018,08,06,08,33,20.70
2018,08,06,08,34,20.80
2018,08,06,08,35,20.90
2018,08,06,08,36,20.90
2018,08,06,08,37,21.00
2018,08,06,08,38,21.10
2018,08,06,08,39,21.20
2018,08,06,08,40,21.20
2018,08,06,08,41,21.30
2018,08,06,08,42,21.30
2018,08,06,08,43,21.40
2018,08,06,08,44,21.40
2018,08,06,08,45,21.50
2018,08,06,08,46,21.60
2018,08,06,08,47,21.60
2018,08,06,08,48,21.70
2018,08,06,08,49,21.80
2018,08,06,08,50,21.90
2018,08,06,08,51,21.90
2018,08,06,08,52,22.00
2018,08,06,08,53,22.00
2018,08,06,08,54,22.10
2018,08,06,08,55,22.10
2018,08,06,08,56,22.20
2018,08,06,08,57,22.20
2018,08,06,08,58,22.30
2018,08,06,08,59,22.40
2018,08,06,09,00,22.40
2018,08,06,09,01,22.50
2018,08,06,09,02,22.60
2018,08,06,09,03,22.70
2018,08,06,09,04,22.80
2018,08,06,09,05,22.90
2018,08,06,09,06,23.00
2018,08,06,09,07,23.10
2018,08,06,09,08,23.10
2018,08,06,09,09,23.10
2018,08,06,09,10,23.10
2018,08,06,09,11,23.20
2018,08,06,09,12,23.20
2018,08,06,09,13,23.20
2018,08,06,09,14,23.20
2018,08,06,09,15,23.30
2018,08,06,09,16,23.30
2018,08,06,09,17,23.40
2018,08,06,09,18,23.50
2018,08,06,09,19,23.40
2018,08,06,09,20,23.50
2018,08,06,09,21,23.50
2018,08,06,09,22,23.50
2018,08,06,09,23,23.50
2018,08,06,09,24,23.50
2018,08,06,09,25,23.60
2018,08,06,09,26,23.60
2018,08,06,09,27,23.60
2018,08,06,09,28,23.60
2018,08,06,09,29,23.60
2018,08,06,09,30,23.60
2018,08,06,09,31,23.60
2018,08,06,09,32,23.70
2018,08,06,09,33,23.70
2018,08,06,09,34,23.80
2018,08,06,09,35,23.90
2018,08,06,09,36,24.00
2018,08,06,09,37,24.10
2018,08,06,09,38,24.20
2018,08,06,09,39,24.20
2018,08,06,09,40,24.30
2018,08,06,09,41,24.30
2018,08,06,09,42,24.30
2018,08,06,09,43,24.30
2018,08,06,09,44,24.40
2018,08,06,09,45,24.40
2018,08,06,09,46,24.40
2018,08,06,09,47,24.50
2018,08,06,09,48,24.50
2018,08,06,09,49,24.60
2018,08,06,09,50,24.60
2018,08,06,09,51,24.60
2018,08,06,09,52,24.50
2018,08,06,09,53,24.50
2018,08,06,09,54,24.50
2018,08,06,09,55,24.50
2018,08,06,09,56,24.40
2018,08,06,09,57,24.40
2018,08,06,09,58,24.40
2018,08,06,09,59,24.40
2018,08,06,10,00,24.40
2018,08,06,10,01,24.40
2018,08,06,10,02,24.40
2018,08,06,10,03,24.40
2018,08,06,10,04,24.50
2018,08,06,10,05,24.50
2018,08,06,10,06,24.60
2018,08,06,10,07,24.50
2018,08,06,10,08,24.50
2018,08,06,10,09,24.40
2018,08,06,10,10,24.40
2018,08,06,10,11,24.40
2018,08,06,10,12,24.40
2018,08,06,10,13,24.50
2018,08,06,10,14,24.50
2018,08,06,10,15,24.60
2018,08,06,10,16,24.70
2018,08,06,10,17,24.70
2018,08,06,10,18,24.80
2018,08,06,10,19,24.80
2018,08,06,10,20,24.90
2018,08,06,10,21,24.90
2018,08,06,10,22,24.90
2018,08,06,10,23,24.90
2018,08,06,10,24,24.90
2018,08,06,10,25,24.90
2018,08,06,10,26,24.90
2018,08,06,10,27,25.00
2018,08,06,10,28,25.00
2018,08,06,10,29,25.20
2018,08,06,10,30,25.30
2018,08,06,10,31,25.40
2018,08,06,10,32,25.50
2018,08,06,10,33,25.50
2018,08,06,10,34,25.60
2018,08,06,10,35,25.60
2018,08,06,10,36,25.60
2018,08,06,10,37,25.60
2018,08,06,10,38,25.60
2018,08,06,10,39,25.60
2018,08,06,10,40,25.70
2018,08,06,10,41,25.70
2018,08,06,10,42,25.80
2018,08,06,10,43,25.80
2018,08,06,10,44,25.90
2018,08,06,10,45,25.90
2018,08,06,10,46,25.90
2018,08,06,10,47,26.00
2018,08,06,10,48,26.00
2018,08,06,10,49,26.10
2018,08,06,10,50,26.10
2018,08,06,10,51,26.10
2018,08,06,10,52,26.10
2018,08,06,10,53,26.20
2018,08,06,10,54,26.20
2018,08,06,10,55,26.20
2018,08,06,10,56,26.20
2018,08,06,10,57,26.10
2018,08,06,10,58,26.00
2018,08,06,10,59,26.00
2018,08,06,11,00,26.10
2018,08,06,11,01,26.10
2018,08,06,11,02,26.10
2018,08,06,11,03,26.10
2018,08,06,11,04,26.10
2018,08,06,11,05,26.10
2018,08,06,11,06,26.10
2018,08,06,11,07,26.10
2018,08,06,11,08,26.10
2018,08,06,11,09,26.10
2018,08,06,11,10,26.10
2018,08,06,11,11,26.00
2018,08,06,11,12,26.00
2018,08,06,11,13,26.00
2018,08,06,11,14,25.90
2018,08,06,11,15,26.00
2018,08,06,11,16,26.00
2018,08,06,11,17,26.10
2018,08,06,11,18,26.10
2018,08,06,11,19,26.20
2018,08,06,11,20,26.30
2018,08,06,11,21,26.50
2018,08,06,11,22,26.60
2018,08,06,11,23,26.60
2018,08,06,11,24,26.60
2018,08,06,11,25,26.60
2018,08,06,11,26,26.60
2018,08,06,11,27,26.60
2018,08,06,11,28,26.50
2018,08,06,11,29,26.50
2018,08,06,11,30,26.50
2018,08,06,11,31,26.50
2018,08,06,11,32,26.20
2018,08,06,11,33,26.10
2018,08,06,11,34,26.00
2018,08,06,11,35,25.90
2018,08,06,11,36,25.90
2018,08,06,11,37,25.90
2018,08,06,11,38,25.90
2018,08,06,11,39,25.90
2018,08,06,11,40,25.90
2018,08,06,11,41,25.90
2018,08,06,11,42,26.00
2018,08,06,11,43,26.10
2018,08,06,11,44,26.10
2018,08,06,11,45,26.10
2018,08,06,11,46,26.10
2018,08,06,11,47,26.10
2018,08,06,11,48,26.10
2018,08,06,11,49,26.10
2018,08,06,11,50,26.10
2018,08,06,11,51,26.20
2018,08,06,11,52,26.20
2018,08,06,11,53,26.30
2018,08,06,11,54,26.30
2018,08,06,11,55,26.30
2018,08,06,11,56,26.30
2018,08,06,11,57,26.30
2018,08,06,11,58,26.30
2018,08,06,11,59,26.40
2018,08,06,12,00,26.40
2018,08,06,12,01,26.40
2018,08,06,12,02,26.30
2018,08,06,12,03,26.30
2018,08,06,12,04,26.30
2018,08,06,12,05,26.30
2018,08,06,12,06,26.20
2018,08,06,12,07,26.20
2018,08,06,12,08,26.30
2018,08,06,12,09,26.20
2018,08,06,12,10,26.20
2018,08,06,12,11,26.20
2018,08,06,12,12,26.20
2018,08,06,12,13,26.20
2018,08,06,12,14,26.20
2018,08,06,12,15,26.20
2018,08,06,12,16,26.30
2018,08,06,12,17,26.40
2018,08,06,12,18,26.50
2018,08,06,12,19,26.50
2018,08,06,12,20,26.60
2018,08,06,12,21,26.70
2018,08,06,12,22,26.70
2018,08,06,12,23,26.80
2018,08,06,12,24,26.70
2018,08,06,12,25,26.70
2018,08,06,12,26,26.60
2018,08,06,12,27,26.60
2018,08,06,12,28,26.50
2018,08,06,12,29,26.50
2018,08,06,12,30,26.50
2018,08,06,12,31,26.40
2018,08,06,12,32,26.40
2018,08,06,12,33,26.40
2018,08,06,12,34,26.30
2018,08,06,12,35,26.40
2018,08,06,12,36,26.50
2018,08,06,12,37,26.60
2018,08,06,12,38,26.70
2018,08,06,12,39,26.80
2018,08,06,12,40,27.00
2018,08,06,12,41,27.10
2018,08,06,12,42,27.20
2018,08,06,12,43,27.20
2018,08,06,12,44,27.20
2018,08,06,12,45,27.20
2018,08,06,12,46,27.20
2018,08,06,12,47,27.20
2018,08,06,12,48,27.30
2018,08,06,12,49,27.30
2018,08,06,12,50,27.40
2018,08,06,12,51,27.50
2018,08,06,12,52,27.60
2018,08,06,12,53,27.60
2018,08,06,12,54,27.60
2018,08,06,12,55,27.60
2018,08,06,12,56,27.50
2018,08,06,12,57,27.50
2018,08,06,12,58,27.50
2018,08,06,12,59,27.50
2018,08,06,13,00,27.60
2018,08,06,13,01,27.70
2018,08,06,13,02,27.80
2018,08,06,13,03,27.80
2018,08,06,13,04,27.80
2018,08,06,13,05,27.80
2018,08,06,13,06,27.80
2018,08,06,13,07,27.80
2018,08,06,13,08,27.70
2018,08,06,13,09,27.60
2018,08,06,13,10,27.50
2018,08,06,13,11,27.40
2018,08,06,13,12,27.20
2018,08,06,13,13,27.20
2018,08,06,13,14,27.20
2018,08,06,13,15,27.20
2018,08,06,13,16,27.30
2018,08,06,13,17,27.30
2018,08,06,13,18,27.40
2018,08,06,13,19,27.40
2018,08,06,13,20,27.50
2018,08,06,13,21,27.50
2018,08,06,13,22,27.60
2018,08,06,13,23,27.60
2018,08,06,13,24,27.50
2018,08,06,13,25,27.50
2018,08,06,13,26,27.50
2018,08,06,13,27,27.50
2018,08,06,13,28,27.50
2018,08,06,13,29,27.60
2018,08,06,13,30,27.70
2018,08,06,13,31,27.70
2018,08,06,13,32,27.70
2018,08,06,13,33,27.70
2018,08,06,13,34,27.80
2018,08,06,13,35,27.90
2018,08,06,13,36,27.90
2018,08,06,13,37,28.00
2018,08,06,13,38,28.10
2018,08,06,13,39,28.10
2018,08,06,13,40,28.20
2018,08,06,13,41,28.20
2018,08,06,13,42,28.10
2018,08,06,13,43,28.00
2018,08,06,13,44,28.10
2018,08,06,13,45,28.10
2018,08,06,13,46,28.10
2018,08,06,13,47,28.10
2018,08,06,13,48,28.00
2018,08,06,13,49,27.90
2018,08,06,13,50,27.80
2018,08,06,13,51,27.80
2018,08,06,13,52,27.70
2018,08,06,13,53,27.70
2018,08,06,13,54,27.60
2018,08,06,13,55,27.50
2018,08,06,13,56,27.60
2018,08,06,13,57,27.60
2018,08,06,13,58,27.70
2018,08,06,13,59,27.80
2018,08,06,14,00,27.90
2018,08,06,14,01,27.80
2018,08,06,14,02,27.80
2018,08,06,14,03,27.80
2018,08,06,14,04,27.90
2018,08,06,14,05,28.00
2018,08,06,14,06,28.10
2018,08,06,14,07,28.10
2018,08,06,14,08,28.20
2018,08,06,14,09,28.20
2018,08,06,14,10,28.20
2018,08,06,14,11,28.20
2018,08,06,14,12,28.10
2018,08,06,14,13,28.00
2018,08,06,14,14,27.90
2018,08,06,14,15,27.80
2018,08,06,14,16,27.80
2018,08,06,14,17,27.90
2018,08,06,14,18,28.00
2018,08,06,14,19,28.10
2018,08,06,14,20,28.10
2018,08,06,14,21,28.10
2018,08,06,14,22,28.00
2018,08,06,14,23,28.00
2018,08,06,14,24,28.10
2018,08,06,14,25,28.10
2018,08,06,14,26,28.20
2018,08,06,14,27,28.20
2018,08,06,14,28,28.20
2018,08,06,14,29,28.20
2018,08,06,14,30,28.30
2018,08,06,14,31,28.30
2018,08,06,14,32,28.50
2018,08,06,14,33,28.50
2018,08,06,14,34,28.60
2018,08,06,14,35,28.50
2018,08,06,14,36,28.50
2018,08,06,14,37,28.50
2018,08,06,14,38,28.50
2018,08,06,14,39,28.50
2018,08,06,14,40,28.40
2018,08,06,14,41,28.50
2018,08,06,14,42,28.50
2018,08,06,14,43,28.60
2018,08,06,14,44,28.70
2018,08,06,14,45,28.70
2018,08,06,14,46,28.70
2018,08,06,14,47,28.70
2018,08,06,14,48,28.70
2018,08,06,14,49,28.70
2018,08,06,14,50,28.70
2018,08,06,14,51,28.60
2018,08,06,14,52,28.60
2018,08,06,14,53,28.60
2018,08,06,14,54,28.60
2018,08,06,14,55,28.60
2018,08,06,14,56,28.60
2018,08,06,14,57,28.60
2018,08,06,14,58,28.60
2018,08,06,14,59,28.60
2018,08,06,15,00,28.70
2018,08,06,15,01,28.80
2018,08,06,15,02,28.80
2018,08,06,15,03,28.90
2018,08,06,15,04,29.10
2018,08,06,15,05,29.20
2018,08,06,15,06,29.30
2018,08,06,15,07,29.20
2018,08,06,15,08,29.20
2018,08,06,15,09,29.20
2018,08,06,15,10,29.20
2018,08,06,15,11,29.10
2018,08,06,15,12,29.10
2018,08,06,15,13,29.20
2018,08,06,15,14,29.20
2018,08,06,15,15,29.20
2018,08,06,15,16,29.20
2018,08,06,15,17,29.30
2018,08,06,15,18,29.30
2018,08,06,15,19,29.40
2018,08,06,15,20,29.40
2018,08,06,15,21,29.40
2018,08,06,15,22,29.40
2018,08,06,15,23,29.30
2018,08,06,15,24,29.20
2018,08,06,15,25,29.10
2018,08,06,15,26,29.10
2018,08,06,15,27,29.00
2018,08,06,15,28,29.00
2018,08,06,15,29,29.10
2018,08,06,15,30,29.10
2018,08,06,15,31,29.20
2018,08,06,15,32,29.20
2018,08,06,15,33,29.20
2018,08,06,15,34,29.20
2018,08,06,15,35,29.20
2018,08,06,15,36,29.30
2018,08,06,15,37,29.40
2018,08,06,15,38,29.50
2018,08,06,15,39,29.60
2018,08,06,15,40,29.70
2018,08,06,15,41,29.70
2018,08,06,15,42,29.70
2018,08,06,15,43,29.70
2018,08,06,15,44,29.70
2018,08,06,15,45,29.80
2018,08,06,15,46,29.80
2018,08,06,15,47,29.80
2018,08,06,15,48,29.80
2018,08,06,15,49,29.70
2018,08,06,15,50,29.70
2018,08,06,15,51,29.60
2018,08,06,15,52,29.50
2018,08,06,15,53,29.50
2018,08,06,15,54,29.40
2018,08,06,15,55,29.40
2018,08,06,15,56,29.40
2018,08,06,15,57,29.40
2018,08,06,15,58,29.30
2018,08,06,15,59,29.30
2018,08,06,16,00,29.30
2018,08,06,16,01,29.30
2018,08,06,16,02,29.30
2018,08,06,16,03,29.30
2018,08,06,16,04,29.40
2018,08,06,16,05,29.40
2018,08,06,16,06,29.40
2018,08,06,16,07,29.40
2018,08,06,16,08,29.50
2018,08,06,16,09,29.60
2018,08,06,16,10,29.70
2018,08,06,16,11,29.80
2018,08,06,16,12,29.80
2018,08,06,16,13,29.80
2018,08,06,16,14,29.70
2018,08,06,16,15,29.70
2018,08,06,16,16,29.80
2018,08,06,16,17,29.80
2018,08,06,16,18,29.80
2018,08,06,16,19,29.80
2018,08,06,16,20,29.80
2018,08,06,16,21,29.80
2018,08,06,16,22,29.80
2018,08,06,16,23,29.80
2018,08,06,16,24,29.80
2018,08,06,16,25,29.80
2018,08,06,16,26,29.90
2018,08,06,16,27,29.90
2018,08,06,16,28,29.90
2018,08,06,16,29,30.00
2018,08,06,16,30,30.00
2018,08,06,16,31,29.90
2018,08,06,16,32,29.90
2018,08,06,16,33,30.00
2018,08,06,16,34,30.00
2018,08,06,16,35,30.10
2018,08,06,16,36,30.20
2018,08,06,16,37,30.20
2018,08,06,16,38,30.30
2018,08,06,16,39,30.40
2018,08,06,16,40,30.40
2018,08,06,16,41,30.40
2018,08,06,16,42,30.40
2018,08,06,16,43,30.30
2018,08,06,16,44,30.30
2018,08,06,16,45,30.30
2018,08,06,16,46,30.30
2018,08,06,16,47,30.30
2018,08,06,16,48,30.30
2018,08,06,16,49,30.30
2018,08,06,16,50,30.40
2018,08,06,16,51,30.40
2018,08,06,16,52,30.50
2018,08,06,16,53,30.50
2018,08,06,16,54,30.40
2018,08,06,16,55,30.30
2018,08,06,16,56,30.20
2018,08,06,16,57,30.20
2018,08,06,16,58,30.20
2018,08,06,16,59,30.30
2018,08,06,17,00,30.30
2018,08,06,17,01,30.30
2018,08,06,17,02,30.30
2018,08,06,17,03,30.20
2018,08,06,17,04,30.20
2018,08,06,17,05,30.10
2018,08,06,17,06,30.10
2018,08,06,17,07,30.00
2018,08,06,17,08,29.90
2018,08,06,17,09,29.90
2018,08,06,17,10,29.90
2018,08,06,17,11,29.90
2018,08,06,17,12,29.90
2018,08,06,17,13,29.90
2018,08,06,17,14,29.80
2018,08,06,17,15,29.80
2018,08,06,17,16,29.80
2018,08,06,17,17,29.80
2018,08,06,17,18,29.80
2018,08,06,17,19,29.80